Location: Nelson
(41.2830°S, 173.2830°E)
Time: 15:45:01
(UTC+12:00)

Cosmos 2333 Rocket - Pass Details

Date: 14 May 2021
Orbit: 839 x 862 km, 70.8° (Epoch: 19 June)

Event Time Altitude Azimuth Distance (km) Brightness Sun altitude
Rises 18:36:19 0° 307° (NW) 3,396 6.6 -14.6°
Reaches altitude 10° 18:39:03 10° 296° (WNW) 2,467 5.9 -15.1°
Maximum altitude 18:43:59 30° 236° (SW) 1,479 3.9 -16.0°
Drops below altitude 10° 18:48:59 10° 175° (S) 2,490 4.5 -16.9°
Sets 18:51:46 0° 164° (SSE) 3,433 5.1 -17.5°
Enters shadow 18:51:55 - 163° (SSE) 3,484 5.1 -17.5°
